Regional Weather Roundup
Issued by NWS Upton, NY

Current Version | Previous Version | Graphics & Text | Print | Product List | Glossary Off
Versions: 1 2 3 4 5 6 7 8 9 10 11 12 13 14 15 16 17 18 19 20 21 22 23 24 25 26 27 28 29 30 31 32 33 34 35 36 37 38 39 40 41 42 43 44 45 46 47 48 49 50

000
ASUS41 KOKX 170509
RWROKX

Regional Weather Roundup
National Weather Service New York NY
1200 AM EST WED JAN 17 2018

Note: "FAIR" indicates few or no clouds below 12,000 feet with no
significant weather and/or obstructions to visibility.

NYZ071-072-176-178-NJZ106-104-170600-
New York City Metro Area

CITY           SKY/WX    TMP DP  RH WIND       PRES   REMARKS
Central Park   CLOUDY    35  30  82 NE5       30.35F WCI  31
Bronx Bot Gard   N/A     34  30  86 E2        30.36R
Bronx Lehman C   N/A     34  30  86 NE3         N/A
LaGuardia Arpt CLOUDY    34  30  85 NE7       30.33F WCI  28
Queens College   N/A     34  32  93 NE5         N/A  WCI  30
Kennedy Intl   CLOUDY    36  33  89 NE6       30.33F WCI  31
Breezy Point     N/A     34 N/A N/A NE5         N/A  WCI  30
Brooklyn Coll    N/A     37  32  81 N3          N/A
Staten Island    N/A     34  30  86 NE3         N/A
Newark/Liberty CLOUDY    34  28  79 NE8       30.33F WCI  27
Teterboro      CLOUDY    33  27  78 N6        30.33F WCI  28
$$

NYZ177-179-078>081-170600-
Long Island New York

CITY           SKY/WX    TMP DP  RH WIND       PRES   REMARKS
Jones Beach      N/A     37 N/A N/A E8          N/A  WCI  31
Wantagh          N/A     39  36  87 E5          N/A
Matinecock Pt    N/A     34 N/A N/A NE7         N/A  WCI  28
Farmingdale    MOCLDY    36  33  89 E7        30.32F WCI  30
MacArthur/ISP  CLOUDY    39  36  89 E7        30.32F WCI  34
Shirley        CLOUDY    39  38  96 VRB3      30.34F
Mt Sinai Harb    N/A    N/A N/A N/A MISG        N/A
Westhampton    LGT RAIN  39  36  89 E6        30.35F FOG     WCI  35
East Hampton   DRIZZLE   37  35  92 E6        30.35F WCI  33
Southold         N/A     36  34  93 E6          N/A  WCI  31
Montauk          N/A     41  34  76 VRB6      30.37F
$$

NYZ052-065-067-170600-
Hudson Valley

CITY           SKY/WX    TMP DP  RH WIND       PRES   REMARKS
White Plains   MOCLDY    34  30  85 E5        30.31F WCI  30
Larchmont Harb   N/A     32 N/A N/A N6          N/A  WCI  26
Croton On Huds   N/A     32 N/A N/A NW2         N/A
Somers           N/A     32  30  93 N2          N/A
Brewster         N/A     32  30  93 CALM        N/A
Newburgh       LGT SNOW  28  28 100 CALM      30.34F FOG
Montgomery     LGT SNOW  28  26  92 N3        30.32F VSB 1
Otisville        N/A     28  27  93 CALM        N/A
Warwick          N/A     28  28 100 E1          N/A
Suffern          N/A     32  28  86 N1          N/A
Poughkeepsie   LGT SNOW  29  27  92 CALM      30.35F VSB 1
Albany         LGT SNOW  27  23  85 N5        30.37F VSB 1   WCI  22
$$

NJZ001-105-106-008-010-013-015-019>022-104-170600-
New Jersey

CITY           SKY/WX    TMP DP  RH WIND       PRES   REMARKS
Newark/Liberty CLOUDY    34  28  79 NE8       30.33F WCI  27
Teterboro      CLOUDY    33  27  78 N6        30.33F WCI  28
Caldwell       CLOUDY    31  26  82 NE3       30.34F
Somerville     CLOUDY    33  28  81 CALM      30.31F
Linden         CLOUDY    35  29  79 CALM      30.33F
Perth Amboy      N/A     34 N/A N/A N3          N/A
Sussex         LGT SNOW  29  27  92 CALM      30.32F FOG
Andover          N/A     28  26  92 N3        30.31F
Trenton        CLOUDY    35  32  88 NE5       30.30F FOG     WCI  31
Millville      CLOUDY    38  35  89 CALM      30.30F
Atlantic City  CLOUDY    38  36  92 CALM      30.29F
Wrightstown    CLOUDY    34  32  91 CALM      30.28F
Toms River     CLOUDY    34  32  92 NE3       30.31F
Belmar         CLOUDY    36  35  96 NE5       30.31F WCI  32
$$

PAZ047>061-062-071-170600-
Eastern Pennsylvania

CITY           SKY/WX    TMP DP  RH WIND       PRES   REMARKS
Philadelphia   CLOUDY    40  32  73 N5        30.32F
Allentown      LGT SNOW  32  28  85 CALM      30.32F FOG
Scranton       LGT SNOW  28  28 100 CALM      30.29F VSB 1
$$

CTZ002-004>006-009-010-012-RIZ004-006-007-MAZ004-011-015-170600-
Southern New England

 In CT

CITY           SKY/WX    TMP DP  RH WIND       PRES   REMARKS
Bradley Intl   FLURRIES  30  27  88 NE3       30.37F
Hartford       CLOUDY    32  25  75 N3        30.38F
Danbury        CLOUDY    32  26  78 NE5       30.34F WCI  27
Wtrbury/Oxford CLOUDY    33  30  88 E6        30.33F WCI  28
Norwalk Harbor   N/A     34 N/A N/A NE10        N/A  WCI  26
Bridgeport     CLOUDY    35  31  85 E7        30.35F WCI  29
Meriden        CLOUDY    31  25  78 CALM      30.36F
New Haven      CLOUDY    37  31  78 E13G18    30.35F WCI  29
Chester        LGT SNOW  34  32  93 SE5       30.35F WCI  30
Groton         LGT RAIN  37  31  78 E12       30.37F WCI  29
Willimantic    CLOUDY    35  29  78 CALM      30.38F

 In RI

CITY           SKY/WX    TMP DP  RH WIND       PRES   REMARKS
Providence     CLOUDY    34  31  88 SE5       30.41F WCI  30
Block Island   CLOUDY    37  34  89 SE10      30.38F WCI  30
Westerly       CLOUDY    37  33  85 E8        30.39F WCI  31

In MA

CITY           SKY/WX    TMP DP  RH WIND       PRES   REMARKS
Boston         CLOUDY    31  27  85 S6        30.40F WCI  25
Worcester      CLOUDY    29  25  85 SE5       30.34S WCI  24
Westfield      LGT SNOW  28  28 100 N3        30.37F FOG
Provincetown   MOCLDY    33  27  78 S3          N/A
Nantucket      CLOUDY    35  31  85 SE10      30.40F WCI  27
$$

ANZ330-335-338-340-345-350-353-355-170600-
Coastal Marine Observations


STATION/POSITION TIME  SKY/WX   TEMP    WIND        PRES    VSBY  WAVE
                                AIR SEA DIR/SP/G                  HT/PER
                 (UTC)          (F)     (DEG/KT/KT) (MB)    (MI)  (FT/S)
NY Harb Entrance 0450            42 42   90/  6/  6 1026.5          4/11
20 S Fire Island 0350            43 41  130/ 10/ 12 1027.6          5/10
15 E Barnegat Li 0430               43                N/A           5/11
Hudson Canyon    0350            46 51  120/ 17/ 19 1026.7          6/11
Kings Point      0448            32 32   50/  7/  8 1028.1
Execution Rocks  NOT AVBL
Western LI Sound NOT AVBL
Central LI Sound 0430            36     110/ 10/ 10   N/A           0
Robbins Reef     0448            34     330/  4/  5 1027.7
$$


>>>>>>>>>>>>>>>>>>>>>>>>>>>> KEY <<<<<<<<<<<<<<<<<<<<<<<<<<<
>                                                          <
>     SKY/WX - Sky Condition/Present Weather               <
>     TMP    - Temperature in Fahrenheit                   <
>     DP     - Dew Point in Fahrenheit                     <
>     RH     - Relative Humidity in Percent                <
>     WIND   - Direction (from) and Speed in MPH           <
>     PRES   - Mean Sea Level Pressure (inches of Hg)      <
>     WCI    - Wind Chill Index                            <
>     VSB    - Visibility in Miles                         <
>     HX     - Heat Index                                  <
>     TC     - Temperature in Celsius                      <
>     VRB    - Varibale Wind Direction                     <
>                                                          <
>>>>>>>>>>>>>>>>>>>>>>>>>>>> KEY <<<<<<<<<<<<<<<<<<<<<<<<<<<



USA.gov is the U.S. government's official web portal to all federal, state and local government web resources and services.